User: anonymous   Login
Location: Chevoux
(46.3801°N, 4.9476°E)
Time: 16:43:43
(UTC+00:00)
Language:

Okean-O - Orbit

View from above orbital plane
View from above orbital plane
View from above satellite
View from above satellite

Ground track
Ground track

The orbit data is extracted from the following two-line orbital elements,

1 25860U 99039A   21109.78503749  .00000078  00000-0  18699-4 0  9999
2 25860  98.1890 139.7135 0001181  68.0017 292.1318 14.76726087170721
Epoch (UTC): 19 April 2021 18:50:27
Eccentricity: 0.0001181
inclination: 98.1890°
perigee height: 639 km
apogee height: 640 km
right ascension of ascending node: 139.7135°
argument of perigee: 68.0017°
revolutions per day: 14.76726087
mean anomaly at epoch: 292.1318°
orbit number at epoch: 17072

The dashed part of the orbit path shows where the satellite is in the earth's shadow,  

DLR